Biblioteca

Música » Peng Qing »

I Can Only Love You ivorydewi marcou esta faixa como favorita

56 execuções | Ir para página da faixa

De Sábado 21 de maio de 2011 a Segunda 21 de maio de 2012 Todo o tempo

Faixas (56)
Faixa Álbum Duração Data
I Can Only Love You 3:36 Fev 22 2012, 3h28
I Can Only Love You 3:36 Jan 21 2012, 3h57
I Can Only Love You 3:36 Jan 20 2012, 9h17
I Can Only Love You 3:36 Jan 20 2012, 6h44
I Can Only Love You 3:36 Jan 20 2012, 4h22
I Can Only Love You 3:36 Jan 19 2012, 8h57
I Can Only Love You 3:36 Jan 19 2012, 6h35
I Can Only Love You 3:36 Dez 3 2011, 5h55
I Can Only Love You 3:36 Dez 3 2011, 5h42
I Can Only Love You 3:36 Dez 3 2011, 5h30
I Can Only Love You 3:36 Dez 3 2011, 5h18
I Can Only Love You 3:36 Dez 3 2011, 5h06
I Can Only Love You 3:36 Dez 3 2011, 4h54
I Can Only Love You 3:36 Dez 3 2011, 4h42
I Can Only Love You 3:36 Dez 3 2011, 4h30
I Can Only Love You 3:36 Dez 3 2011, 4h18
I Can Only Love You 3:36 Dez 3 2011, 4h06
I Can Only Love You 3:36 Dez 3 2011, 3h54
I Can Only Love You 3:36 Dez 3 2011, 3h42
I Can Only Love You 3:36 Dez 3 2011, 3h30
I Can Only Love You 3:36 Dez 3 2011, 3h18
I Can Only Love You 3:36 Dez 3 2011, 3h06
I Can Only Love You 3:36 Dez 3 2011, 2h54
I Can Only Love You 3:36 Dez 3 2011, 2h42
I Can Only Love You 3:36 Dez 3 2011, 2h30
I Can Only Love You 3:36 Dez 3 2011, 2h18
I Can Only Love You 3:36 Dez 3 2011, 2h05
I Can Only Love You 3:36 Dez 3 2011, 1h53
I Can Only Love You 3:36 Dez 3 2011, 1h41
I Can Only Love You 3:36 Nov 2 2011, 7h44
I Can Only Love You 3:36 Nov 2 2011, 7h41
I Can Only Love You 3:36 Nov 2 2011, 7h37
I Can Only Love You 3:36 Nov 2 2011, 7h33
I Can Only Love You 3:36 Nov 2 2011, 7h30
I Can Only Love You 3:36 Nov 2 2011, 7h26
I Can Only Love You 3:36 Nov 2 2011, 7h23
I Can Only Love You 3:36 Nov 2 2011, 7h19
I Can Only Love You 3:36 Nov 2 2011, 7h15
I Can Only Love You 3:36 Nov 2 2011, 7h12
I Can Only Love You 3:36 Nov 2 2011, 7h08
I Can Only Love You 3:36 Nov 2 2011, 7h04
I Can Only Love You 3:36 Nov 2 2011, 7h01
I Can Only Love You 3:36 Nov 2 2011, 6h57
I Can Only Love You 3:36 Nov 2 2011, 6h54
I Can Only Love You 3:36 Nov 2 2011, 6h50
I Can Only Love You 3:36 Nov 2 2011, 6h46
I Can Only Love You 3:36 Nov 2 2011, 6h43
I Can Only Love You 3:36 Nov 2 2011, 6h39
I Can Only Love You 3:36 Nov 2 2011, 6h36
I Can Only Love You 3:36 Nov 2 2011, 6h32
I Can Only Love You 3:36 Nov 2 2011, 6h28
I Can Only Love You 3:36 Nov 2 2011, 6h25
I Can Only Love You 3:36 Nov 2 2011, 6h21
I Can Only Love You 3:36 Nov 2 2011, 6h18
I Can Only Love You 3:36 Nov 2 2011, 6h14
I Can Only Love You 3:36 Set 19 2011, 4h04